Buffalo, WY

12:19 AM MDT on July 31, 2016 (GMT -0600)
Buffalo | | Change Station

Elev 4708 ft 44.34 °N, 106.70 °W | Updated 39 seconds ago

Clear
Clear
68.9 °F
Feels Like 68.9 °F
N
0.2
Wind Variable Wind from West
Gusts 2.5 mph

Today
High -- | Low -- °F
--% Chance of Precip.
Yesterday
High -- | Low -- °F
Precip. -- in
Pressure 29.67 in
Visibility 10.0 miles
Clouds Clear
Dew Point 49 °F
Humidity 49%
Rainfall 0.00 in
Snow Depth Not available.
5:53 AM 8:32 PM
Waning Crescent, 8% visible
METAR KBYG 310553Z AUTO 24004KT 10SM CLR 21/07 A2989 RMK AO2 SLP047 T02060072 10344 20206 50004
Pressure 29.67 in
Visibility 10.0 miles
Clouds Clear
Dew Point 49 °F
Humidity 49%
Rainfall 0.00 in
Snow Depth Not available.
5:53 AM 8:32 PM
Waning Crescent, 8% visible
METAR KBYG 310553Z AUTO 24004KT 10SM CLR 21/07 A2989 RMK AO2 SLP047 T02060072 10344 20206 50004

10-Day Weather Forecast

Almanac

Astronomy

Jul. 31, 2016 Rise Set
Actual Time
Civil Twilight
Nautical Twilight
Astronomical Twilight
Moon
Length of Visible Light
Length of Day
Tomorrow will be .
, % of the Moon is Illuminated

Today's Extremes

State Highs State Lows

Community

WunderPhotos

Upload Photos

1,928,766 photos uploaded!

WunderBlog® & News

Nearby

Air Quality

  Air Quality AQ Index Pollutant
Not available.

Snow Depth

Station Depth Elevation

Earthquake Activity

City Distance Mag. Time & Date
Minimum magnitude displayed is 2.5.

Coastal Water Temperatures

Place Temperature

Stations

Nearby Weather Stations

Station Location Temp. Windchill Dew Point Humidity Wind Precip. Elev Updated Type
                   

Watches & Warnings

There are currently no watches in effect.